TimeMDT,TemperatureF,Dew PointF,Humidity,Sea Level PressureIn,VisibilityMPH,Wind Direction,Wind SpeedMPH,Gust SpeedMPH,PrecipitationIn,Events,Conditions,WindDirDegrees,DateUTC
12:15 AM,32.0,24.8,75,30.25,10.0,Calm,Calm,-,N/A,,Clear,0,2012-10-18 06:15:00
12:35 AM,33.8,23.0,65,30.24,10.0,Calm,Calm,-,N/A,,Clear,0,2012-10-18 06:35:00
12:55 AM,33.8,21.2,60,30.25,10.0,NNW,5.8,-,N/A,,Clear,340,2012-10-18 06:55:00
1:15 AM,33.8,19.4,56,30.26,10.0,NW,5.8,-,N/A,,Clear,320,2012-10-18 07:15:00
1:35 AM,32.0,19.4,60,30.27,10.0,North,4.6,-,N/A,,Clear,350,2012-10-18 07:35:00
1:55 AM,33.8,19.4,56,30.27,10.0,NNW,5.8,-,N/A,,Clear,340,2012-10-18 07:55:00
2:15 AM,33.8,19.4,56,30.27,10.0,NW,8.1,-,N/A,,Clear,320,2012-10-18 08:15:00
2:35 AM,33.8,17.6,52,30.27,10.0,NW,6.9,-,N/A,,Clear,320,2012-10-18 08:35:00
2:55 AM,33.8,17.6,52,30.28,10.0,NW,9.2,-,N/A,,Clear,320,2012-10-18 08:55:00
3:15 AM,32.0,19.4,60,30.28,10.0,NW,6.9,-,N/A,,Clear,320,2012-10-18 09:15:00
3:35 AM,33.8,17.6,52,30.29,10.0,NW,8.1,-,N/A,,Clear,310,2012-10-18 09:35:00
3:55 AM,33.8,17.6,52,30.29,10.0,NW,6.9,-,N/A,,Clear,310,2012-10-18 09:55:00
4:15 AM,33.8,17.6,52,30.29,10.0,NW,9.2,-,N/A,,Clear,310,2012-10-18 10:15:00
4:35 AM,33.8,17.6,52,30.29,10.0,NW,8.1,-,N/A,,Clear,310,2012-10-18 10:35:00
4:55 AM,33.8,15.8,48,30.30,10.0,NW,8.1,-,N/A,,Clear,310,2012-10-18 10:55:00
5:15 AM,33.8,15.8,48,30.29,10.0,NW,8.1,-,N/A,,Clear,310,2012-10-18 11:15:00
5:35 AM,32.0,15.8,51,30.29,10.0,NW,8.1,-,N/A,,Clear,310,2012-10-18 11:35:00
5:55 AM,32.0,15.8,51,30.30,10.0,NW,9.2,-,N/A,,Clear,320,2012-10-18 11:55:00
6:15 AM,32.0,15.8,51,30.30,10.0,NW,9.2,-,N/A,,Clear,310,2012-10-18 12:15:00
6:50 AM,33.8,15.8,48,30.31,10.0,WNW,9.2,-,N/A,,Clear,300,2012-10-18 12:50:00
6:55 AM,32.0,15.8,51,30.31,10.0,NW,10.4,-,N/A,,Clear,310,2012-10-18 12:55:00
7:48 AM,32.0,15.8,51,30.32,10.0,WNW,8.1,-,N/A,,Clear,300,2012-10-18 13:48:00
8:47 AM,33.8,14.0,44,30.33,10.0,WNW,8.1,-,N/A,,Clear,290,2012-10-18 14:47:00
9:47 AM,37.4,14.0,38,30.34,10.0,NW,9.2,-,N/A,,Partly Cloudy,310,2012-10-18 15:47:00
10:47 AM,42.8,12.2,29,30.33,10.0,WNW,5.8,-,N/A,,Partly Cloudy,290,2012-10-18 16:47:00
11:47 AM,50.0,19.4,30,30.33,10.0,ESE,6.9,-,N/A,,Partly Cloudy,110,2012-10-18 17:47:00
12:47 PM,53.6,21.2,28,30.33,10.0,ESE,9.2,-,N/A,,Partly Cloudy,120,2012-10-18 18:47:00
1:47 PM,53.6,23.0,30,30.30,10.0,SE,8.1,-,N/A,,Partly Cloudy,130,2012-10-18 19:47:00
2:47 PM,55.4,21.2,26,30.29,10.0,ESE,10.4,-,N/A,,Partly Cloudy,120,2012-10-18 20:47:00
3:50 PM,55.4,23.0,29,30.27,10.0,ESE,8.1,-,N/A,,Scattered Clouds,110,2012-10-18 21:50:00
5:47 PM,53.6,26.6,35,30.25,10.0,SE,5.8,-,N/A,,Scattered Clouds,130,2012-10-18 23:47:00
6:47 PM,46.4,28.4,50,30.23,10.0,Calm,Calm,-,N/A,,Scattered Clouds,0,2012-10-19 00:47:00
7:47 PM,46.4,26.6,46,30.23,10.0,Calm,Calm,-,N/A,,Clear,0,2012-10-19 01:47:00
8:47 PM,42.8,26.6,53,30.23,10.0,WNW,8.1,-,N/A,,Clear,290,2012-10-19 02:47:00
9:47 PM,42.8,26.6,53,30.23,10.0,WNW,8.1,-,N/A,,Clear,290,2012-10-19 03:47:00
10:47 PM,39.2,26.6,61,30.22,10.0,West,9.2,-,N/A,,Clear,280,2012-10-19 04:47:00